{"data":{"norad_id":67879,"intl_designator":"2026-035A","name":"STARLINK-36818","alt_names":[],"object_type":"PAYLOAD","status":"ACTIVE","operator":null,"country":"US","launch_date":"2026-02-21","launch_site_code":"AFWTR","launch_vehicle":null,"mission":null,"orbit_class":"UNKNOWN","rcs_meters":null,"size_class":null,"mass_kg":null,"dimensions":null,"purposes":["comms"],"wikipedia_slug":null,"has_3d_model":false,"image_url":null,"decayed_at":null,"tle_current":{"epoch":"2026-09-19T00:53:20.982624Z","epoch_age_seconds":189700,"freshness":"STALE","line1":"1 67879U 26035A   26262.03704841  .00015208  00000+0  47223-3 0  9994","line2":"2 67879  97.2842 193.8277 0001704  98.5479 261.5957 15.33459130 33614","mean_motion":15.3345913,"eccentricity":0.0001704,"inclination_deg":97.2842,"raan_deg":193.8277,"arg_perigee_deg":98.5479,"mean_anomaly_deg":261.5957,"bstar":0.00047223,"rev_number":3361,"period_min":93.905339361734,"perigee_km":464.33497792424,"apogee_km":466.66728980026,"semimajor_km":6843.6381338623,"source":"CELESTRAK","updated_at":"2026-09-20T09:00:43.694870Z"}}}